Karup, Denmark

2:05 AM CEST on July 23, 2017 (GMT +0200)
Karup Air Base

Weather History for EKKA - November, 2012

Change the Weather History Date:

Wednesday, November 7, 2012

  Actual Average Record
Temperature  
Mean Temperature 46 °F -  
Max Temperature 51 °F 43 °F 59 °F (2015)
Min Temperature 42 °F 33 °F 24 °F (2010)
Degree Days  
Heating Degree Days 18    
Moisture  
Dew Point 42 °F    
Average Humidity 82    
Maximum Humidity 100    
Minimum Humidity 66    
Precipitation  
Precipitation 0.00 in - - ()
Sea Level Pressure  
Sea Level Pressure 29.76 in    
Wind  
Wind Speed 15 mph ()    
Max Wind Speed 20 mph    
Max Gust Speed 30 mph    
Visibility 5.9 miles    
Events Rain    
Averages and records for this station are not official NWS values.
T = Trace of Precipitation, MM = Missing Value Source: Averaged Metar Reports

Daily Weather History Graph

Daily Weather History Graph

Search for Another Location

Airport or City:

Trip Planner

Search our weather history database for the weather conditions in past years. The results will help you decide how hot, cold, wet, or windy it might be!

Date:

Astronomy

Nov. 07, 2012 Rise Set
Actual Time 7:44 AM CET 4:28 PM CET
Civil Twilight 7:03 AM CET 5:09 PM CET
Nautical Twilight 6:18 AM CET 5:54 PM CET
Astronomical Twilight 5:35 AM CET 6:38 PM CET
Moon No Moon Rise 1:40 PM CET (11/7)
Length of Visible Light 10h 05m
Length of Day
8h 43m
Last Quarter, 46% of the Moon is Illuminated
Nov 7
Last Quarter
Nov 13
New
Nov 20
First Quarter
Nov 28
Full
Dec 6
Last Quarter

Hourly Weather History & Observations

Time (CET) Temp. Windchill Dew Point Humidity Pressure Visibility Wind Dir Wind Speed Gust Speed Precip Events Conditions
12:20 AM 46.4 °F 39.2 °F 39.2 °F 76% 29.59 in 6.2 mi WNW 18.4 mph - N/A   Mostly Cloudy
12:50 AM 46.4 °F 39.2 °F 39.2 °F 76% 29.62 in 6.2 mi WNW 18.4 mph - N/A   Mostly Cloudy
1:00 AM 46 °F - 38 °F 66% 29.63 in 6 mi WNW 19.6 mph - -   Mostly Cloudy
1:18 AM 46.4 °F 39.2 °F 37.4 °F 71% 29.62 in 6.2 mi WNW 18.4 mph 29.9 mph N/A   Mostly Cloudy
1:19 AM 46.4 °F 39.2 °F 37.4 °F 71% 29.62 in 6.2 mi WNW 18.4 mph 29.9 mph N/A   Mostly Cloudy
1:20 AM 46.4 °F 39.2 °F 37.4 °F 71% 29.62 in 6.2 mi WNW 18.4 mph 29.9 mph N/A   Mostly Cloudy
1:50 AM 44.6 °F 37.2 °F 37.4 °F 76% 29.62 in 6.2 mi WNW 17.3 mph 28.8 mph N/A   Mostly Cloudy
2:20 AM 44.6 °F 37.2 °F 37.4 °F 76% 29.65 in 6.2 mi NW 17.3 mph - N/A   Mostly Cloudy
2:50 AM 44.6 °F 38.8 °F 37.4 °F 76% 29.65 in 6.2 mi NW 11.5 mph - N/A   Mostly Cloudy
3:18 AM 44.6 °F 37.8 °F 37.4 °F 76% 29.68 in 6.2 mi NW 15.0 mph - N/A   Mostly Cloudy
3:20 AM 44.6 °F 37.8 °F 39.2 °F 81% 29.68 in 6.2 mi NW 15.0 mph - N/A   Mostly Cloudy
3:50 AM 44.6 °F 37.4 °F 37.4 °F 76% 29.68 in 6.2 mi NW 16.1 mph - N/A   Mostly Cloudy
4:00 AM 45 °F - 37 °F 66% 29.71 in 6 mi NW 12.7 mph - -   Mostly Cloudy
4:20 AM 44.6 °F 38.4 °F 37.4 °F 76% 29.71 in 6.2 mi NW 12.7 mph - N/A   Mostly Cloudy
4:51 AM 44.6 °F 38.8 °F 37.4 °F 76% 29.71 in 6.2 mi NW 11.5 mph - N/A   Mostly Cloudy
5:21 AM 44.6 °F 38.4 °F 37.4 °F 76% 29.71 in 6.2 mi WNW 12.7 mph 24.2 mph N/A   Mostly Cloudy
5:50 AM 44.6 °F 38.1 °F 37.4 °F 76% 29.74 in 6.2 mi WNW 13.8 mph - N/A   Mostly Cloudy
6:20 AM 42.8 °F 35.4 °F 37.4 °F 81% 29.74 in 6.2 mi NW 15.0 mph - N/A   Mostly Cloudy
6:50 AM 42.8 °F 37.5 °F 37.4 °F 81% 29.74 in 6.2 mi WNW 9.2 mph - N/A   Mostly Cloudy
7:00 AM 43 °F - 37 °F 72% 29.78 in 6 mi West 8.1 mph - -   Mostly Cloudy
7:20 AM 42.8 °F 35.8 °F 37.4 °F 81% 29.77 in 6.2 mi WNW 13.8 mph - N/A   Mostly Cloudy
7:50 AM 44.6 °F 37.4 °F 37.4 °F 76% 29.77 in 6.2 mi West 16.1 mph - N/A   Mostly Cloudy
8:20 AM 44.6 °F 38.1 °F 37.4 °F 76% 29.80 in 6.2 mi WNW 13.8 mph - N/A   Mostly Cloudy
8:50 AM 44.6 °F 38.1 °F 39.2 °F 81% 29.80 in 6.2 mi WNW 13.8 mph - N/A   Mostly Cloudy
9:20 AM 46.4 °F 40.1 °F 39.2 °F 76% 29.80 in 6.2 mi West 15.0 mph - N/A   Mostly Cloudy
9:50 AM 46.4 °F 39.5 °F 41.0 °F 81% 29.83 in 6.2 mi West 17.3 mph - N/A   Mostly Cloudy
10:00 AM 47 °F - 41 °F 73% 29.84 in 12 mi West 17.3 mph - -   Mostly Cloudy
10:20 AM 48.2 °F - 41.0 °F 76% 29.83 in 6.2 mi West 17.3 mph - N/A   Mostly Cloudy
10:50 AM 48.2 °F - 42.8 °F 82% 29.83 in 6.2 mi West 15.0 mph - N/A   Mostly Cloudy
11:20 AM 48.2 °F - 42.8 °F 82% 29.83 in 6.2 mi West 13.8 mph - N/A   Mostly Cloudy
11:50 AM 50.0 °F - 44.6 °F 82% 29.83 in 6.2 mi West 13.8 mph - N/A   Mostly Cloudy
12:20 PM 50.0 °F - 44.6 °F 82% 29.83 in 6.2 mi West 16.1 mph - N/A   Mostly Cloudy
12:50 PM 50.0 °F - 44.6 °F 82% 29.83 in 6.2 mi West 13.8 mph - N/A   Mostly Cloudy
1:00 PM 51 °F - 46 °F 75% 29.83 in 12 mi West 15.0 mph - -   Mostly Cloudy
1:20 PM 51.8 °F - 46.4 °F 82% 29.83 in 6.2 mi West 19.6 mph - N/A   Mostly Cloudy
1:51 PM 50.0 °F - 46.4 °F 87% 29.83 in 4.3 mi West 17.3 mph - N/A   Light Drizzle
2:20 PM 50.0 °F - 46.4 °F 87% 29.83 in 6.2 mi West 19.6 mph - N/A   Mostly Cloudy
2:50 PM 50.0 °F - 46.4 °F 87% 29.83 in 6.2 mi West 17.3 mph - N/A   Mostly Cloudy
3:20 PM 50.0 °F - 46.4 °F 87% 29.80 in 6.2 mi West 15.0 mph - N/A   Mostly Cloudy
3:50 PM 50.0 °F - 44.6 °F 82% 29.80 in 6.2 mi West 15.0 mph 26.5 mph N/A   Mostly Cloudy
4:00 PM 50 °F - 44 °F 75% 29.83 in 12 mi West 15.0 mph - -   Mostly Cloudy
4:20 PM 50.0 °F - 42.8 °F 76% 29.80 in 6.2 mi West 18.4 mph - N/A   Mostly Cloudy
4:50 PM 50.0 °F - 42.8 °F 76% 29.80 in 6.2 mi West 17.3 mph - N/A   Mostly Cloudy
5:20 PM 48.2 °F - 42.8 °F 82% 29.80 in 6.2 mi WSW 15.0 mph - N/A   Mostly Cloudy
5:51 PM 48.2 °F - 44.6 °F 87% 29.80 in 6.2 mi WSW 13.8 mph - N/A   Mostly Cloudy
6:20 PM 48.2 °F - 44.6 °F 87% 29.80 in 6.2 mi WSW 15.0 mph - N/A   Mostly Cloudy
6:50 PM 48.2 °F - 46.4 °F 93% 29.80 in 3.7 mi WSW 15.0 mph - N/A   Light Drizzle
7:00 PM 48 °F - 46 °F 92% 29.82 in 2 mi WSW 12.7 mph - - Rain Light Drizzle
7:20 PM 48.2 °F - 46.4 °F 93% 29.80 in 2.5 mi WSW 11.5 mph - N/A   Light Drizzle
7:50 PM 48.2 °F - 48.2 °F 100% 29.80 in 3.7 mi WSW 17.3 mph - N/A   Mostly Cloudy
8:20 PM 48.2 °F - 48.2 °F 100% 29.80 in 6.2 mi WSW 18.4 mph - N/A   Mostly Cloudy
8:50 PM 50.0 °F - 46.4 °F 87% 29.80 in 5.0 mi WSW 17.3 mph 28.8 mph N/A   Mostly Cloudy
9:20 PM 48.2 °F - 48.2 °F 100% 29.77 in 3.7 mi WSW 16.1 mph - N/A   Light Drizzle
9:50 PM 50.0 °F - 48.2 °F 94% 29.77 in 4.3 mi WSW 16.1 mph - N/A   Mostly Cloudy
10:00 PM 49 °F - 47 °F 92% 29.80 in 4 mi WSW 15.0 mph - -   Mist
10:20 PM 50.0 °F - 48.2 °F 94% 29.77 in 3.7 mi WSW 15.0 mph - N/A   Light Drizzle
10:50 PM 50.0 °F - 48.2 °F 94% 29.77 in 1.9 mi WSW 13.8 mph - N/A   Light Drizzle
11:20 PM 50.0 °F - 48.2 °F 94% 29.77 in 2.5 mi WSW 16.1 mph - N/A   Light Drizzle
11:50 PM 50.0 °F - 48.2 °F 94% 29.77 in 2.5 mi WSW 15.0 mph - N/A   Light Drizzle